Home > Time Zones > World Clock > Weather > Italy > Turin > Past weeks

Flag for Italy Weather past 2 weeks in Turin, Italy

Now
46 °F

Clear.


Feels Like: 42 °F
Forecast: 44 / 56 °F
Wind: 9 mph from Southeast

Location: Torino / Bric Della Croce

Current Time: Apr 2, 2015 at 4:16:59 AM

Latest Report: Apr 2, 2015 at 2:55 AM


Visibility: 10 mi

Pressure: 30.04 "Hg

Humidity: 32%

Dew point: 18 °F

Location of TurinLocation

Historic Weather in Turin — Graph

°F

Turin temperature yesterday

Maximum temperature yesterday: 61 °F (at 3:55 PM)
Minimum temperature yesterday: 50 °F (at 6:55 AM)
Average temperature yesterday: 55 °F

Past Weeks' High & Low Weather Summary

 TemperatureHumidityPressure
High72 °F (Mar 31, 2:55 PM)100% (Mar 21, 9:55 PM)30.30 "Hg (Mar 21, 9:55 PM)
Low37 °F (Mar 22, 4:55 PM)10% (Mar 27, 11:55 AM)29.53 "Hg (Mar 25, 6:55 PM)
Average50 °F63%29.91 "Hg
* Reported Mar 18 1:55 AM — Apr 2 2:55 AM, Turin, Weather by CustomWeather, © 2015

Note: Actual official high and low records may vary slightly from our data, if they occured in-between our weather recording intervals... More about our weather records

Advertising

Turin weather history for previous 24 hours

 ConditionsComfort  
Time TempWeatherWind HumidityBarometerVisibility
2:55 AM
Thu, Apr 2
46 °FClear.9 mph32%30.04 "Hg10 mi
1:55 AM46 °FClear.10 mph32%30.04 "Hg10 mi
12:55 AM46 °FClear.12 mph32%30.04 "Hg10 mi
11:55 PM
Wed, Apr 1
50 °FClear.16 mph28%30.01 "Hg10 mi
10:55 PM50 °FClear.12 mph30%30.01 "Hg10 mi
9:55 PM52 °FClear.12 mph24%29.98 "Hg10 mi
8:55 PM55 °FSunny.13 mph21%29.98 "Hg10 mi
7:55 PM57 °FSunny.7 mph17%29.95 "Hg10 mi
6:55 PM59 °FPassing clouds.9 mph16%29.92 "HgN/A
5:55 PM61 °FSunny.2 mph13%29.92 "Hg10 mi
4:55 PM61 °FPassing clouds.10 mph13%29.92 "HgN/A
3:55 PM61 °FPassing clouds.16 mph13%29.95 "HgN/A
2:55 PM59 °FPassing clouds.15 mph16%29.95 "HgN/A
1:55 PM57 °FPassing clouds.21 mph18%29.95 "HgN/A
12:55 PM57 °FPassing clouds.18 mph17%29.95 "HgN/A
11:55 AM54 °FPassing clouds.16 mph19%29.95 "HgN/A
10:55 AM54 °FPassing clouds.20 mph18%29.95 "HgN/A
9:55 AM52 °FPassing clouds.22 mph20%29.95 "HgN/A
8:55 AM50 °FSunny.18 mph25%29.95 "Hg10 mi
7:55 AM50 °FClear.24 mph25%29.89 "Hg10 mi
6:55 AM50 °FClear.22 mph28%29.89 "Hg10 mi
5:55 AM52 °FClear.20 mph26%29.86 "Hg10 mi
4:55 AM52 °FClear.22 mph24%29.86 "Hg10 mi
Weather by CustomWeather, © 2015

See weather overviewHow to use our weather pages